Weather Roundup
Issued by NWS

Home | Current Version | Previous Version | Graphics & Text | Print | Product List | Glossary Off
Versions: 1 2 3 4 5 6 7 8 9 10 11 12 13 14 15 16 17 18 19 20 21 22 23 24 25 26 27 28 29 30 31 32 33 34 35 36 37 38 39 40 41 42 43 44 45 46 47 48 49 50

000
NZUS93 KARX 251710
HRRWXR

CURRENT HOURLY OBSERVATIONS ACROSS
MUCH OF THE UPPER MISSISSIPPI VALLEY
NATIONAL WEATHER SERVICE LA CROSSE WI
1200 PM CDT WED MAY 25 2016


...SOUTHEAST MINNESOTA...


CITY           SKY/WX    TMP DP  RH WIND       PRES   REMARKS
ROCHESTER      LGT RAIN  70  66  87 E12       29.89S
ROCHESTER/MAYO CLOUDY    68  67  96 E7        29.90R
WINONA         LGT RAIN  70  63  78 S3        29.92R
AUSTIN         CLOUDY    70  64  83 E8        29.87S
ALBERT LEA     CLOUDY    70  66  88 E3        29.85F FOG
DODGE CENTER   PTSUNNY   70  68  94 E13       29.89R FOG
PRESTON        LGT RAIN  67  64  89 E9        29.89F
OWATONNA       LGT RAIN  70  66  88 E6        29.87S
FARIBAULT      CLOUDY    70  66  88 E12       29.86F
$$

...ELSEWHERE IN MINNESOTA...


CITY           SKY/WX    TMP DP  RH WIND       PRES   REMARKS
MINNEAPOLIS    LGT RAIN  68  62  81 E13       29.87S
INTNL FALLS    CLOUDY    64  54  69 E12       29.96
DULUTH         FOG       49  48  97 E18G30    30.01  VSB 1/4
RED WING       PTSUNNY   70  66  88 E3        29.87F
REDWOOD FALLS  CLOUDY    72  64  76 SE21      29.80S
MANKATO        CLOUDY    70  63  78 SE13      29.85S
WORTHINGTON    CLOUDY    72  64  76 S18       29.84
FAIRMONT       CLOUDY    72  45  37 SE13      29.83R
$$

...SOUTHWEST WISCONSIN...


CITY           SKY/WX    TMP DP  RH WIND       PRES   REMARKS
LA CROSSE      CLOUDY    76  64  66 S7        29.89F
PRAIRIE DU CHI PTSUNNY   78  59  51 SE13      29.88F
BOSCOBEL       CLOUDY    82  62  50 SE8       29.89F
LONE ROCK      PTSUNNY   81  63  54 SE14      29.92F
PLATTEVILLE    MOSUNNY   80  62  54 SE14      29.92F
FORT MC COY    CLOUDY    80  63  55 SE13      29.90F
CAMP DOUGLAS   PTSUNNY   79  70  73 E13G18    29.93F
MAUSTON-NEW LI PTSUNNY   80  64  58 SE10      29.93F
VIROQUA        FAIR      77  61  56 SE14G20   29.90F
WIS DELLS      PTSUNNY   81  60  48 SE7       29.94F
$$

...ELSEWHERE IN WISCONSIN...


CITY           SKY/WX    TMP DP  RH WIND       PRES   REMARKS
MILWAUKEE      PTSUNNY   60  52  74 NE12      30.01F
MADISON        PTSUNNY   80  63  55 S12       29.95F
GREEN BAY      CLOUDY    64  57  78 NE9       30.03F
EAU CLAIRE     CLOUDY    78  59  51 E13G20    29.88F
BLACK RVR FLS  FAIR      82  58  43 E8        29.90F
MEDFORD        CLOUDY    71  62  73 E8        29.99F
WAUSAU         CLOUDY    70  59  68 E10       30.00F
WIS RAPIDS     PTSUNNY   73  57  57 E13G18    29.99F
MARSHFIELD     PTSUNNY   71  59  65 E15       29.97F
RICE LAKE      CLOUDY    76  58  53 E12       29.94F
$$

...NORTHEAST IOWA...


CITY           SKY/WX    TMP DP  RH WIND       PRES   REMARKS
WATERLOO       CLOUDY    68  64  87 S16G23    29.88S
DUBUQUE        CLOUDY    76  62  62 S17       29.93S
DECORAH        CLOUDY    70  66  88 SE8       29.88F
MASON CITY     LGT RAIN  63  61  93 S15       29.87F
CHARLES CITY   CLOUDY    70  66  88 S17       29.89R
OELWEIN        CLOUDY    73  64  73 S16G26    29.89S
$$

...ELSEWHERE IN IOWA...


CITY           SKY/WX    TMP DP  RH WIND       PRES   REMARKS
DES MOINES     CLOUDY    75  66  73 S12       29.87S
IOWA CITY      CLOUDY    76  67  73 S14G21    29.92S
FORT DODGE     CLOUDY    70  63  78 S9G16     29.86S
MARSHALLTOWN   CLOUDY    69  65  86 SE12      29.87F
CEDAR RAPIDS   CLOUDY    73  67  81 S9        29.91R
$$

...NORTHERN ILLINOIS...


CITY           SKY/WX    TMP DP  RH WIND       PRES   REMARKS
CHICAGO-OHARE  PTSUNNY   80  65  59 S10       29.99R
CHICAGO-MIDWAY PTSUNNY   82  61  48 SW10      29.99S
MOLINE         PTSUNNY   82  63  52 SE15      29.92R
ROCKFORD       CLOUDY    83  63  50 S16G22    29.96F
PEORIA         SUNNY     82  64  54 S13       29.95F
$$

NOTE: "FAIR" INDICATES FEW OR NO CLOUDS BELOW 12,000 FEET WITH NO
SIGNIFICANT WEATHER AND/OR OBSTRUCTIONS TO VISIBILITY. WIND
SPEEDS ARE IN MILES-PER-HOUR.




USA.gov is the U.S. government's official web portal to all federal, state and local government web resources and services.